BAW727G LOWW-EGLL

Flight info

Callsign BAW727G
Flight time 1h 53m
Altitude 36000
Route BUWUT DCT DITIS DCT IPDUL DCT OKG DCT VELIS DCT SWALM DCT TIVUN DCT BREDA DCT ABNED L980 LOGAN
Aircraft A320/M-SDE3FGHIRWY/LB1

Departure

Time 2026-05-06 17:55
Airport Vienna International Airport (LOWW)

Arrival

Time 2026-05-06 19:49
Airport London Heathrow Airport (EGLL)
Time Latitude Longitude Altitude Speed Heading
2026-05-06 17:19 48.11789 16.56038 616 ft 0 kts 38°
2026-05-06 17:26 48.11789 16.56037 608 ft 0 kts 38°
2026-05-06 17:37 48.11788 16.56037 608 ft 0 kts 38°
2026-05-06 17:41 48.11780 16.56027 616 ft 2 kts 38°
2026-05-06 17:41 48.11767 16.56012 624 ft 2 kts 37°
2026-05-06 17:42 48.11754 16.55997 618 ft 2 kts 42°
2026-05-06 17:42 48.11742 16.55979 624 ft 2 kts 52°
2026-05-06 17:42 48.11734 16.55958 624 ft 2 kts 79°
2026-05-06 17:42 48.11737 16.55936 619 ft 2 kts 110°
2026-05-06 17:43 48.11741 16.55923 621 ft 0 kts 115°
2026-05-06 17:46 48.11740 16.55927 621 ft 2 kts 115°
2026-05-06 17:46 48.11730 16.55960 624 ft 4 kts 115°
2026-05-06 17:46 48.11713 16.56011 619 ft 6 kts 116°
2026-05-06 17:47 48.11690 16.56081 611 ft 8 kts 116°
2026-05-06 17:47 48.11662 16.56167 612 ft 10 kts 116°
2026-05-06 17:47 48.11628 16.56271 616 ft 12 kts 116°
2026-05-06 17:47 48.11589 16.56391 608 ft 14 kts 115°
2026-05-06 17:48 48.11544 16.56525 614 ft 15 kts 116°
2026-05-06 17:48 48.11497 16.56671 611 ft 15 kts 116°
2026-05-06 17:48 48.11452 16.56810 619 ft 14 kts 116°
2026-05-06 17:48 48.11406 16.56949 613 ft 16 kts 116°
2026-05-06 17:49 48.11369 16.57066 618 ft 13 kts 115°
2026-05-06 17:49 48.11329 16.57191 610 ft 14 kts 115°
2026-05-06 17:49 48.11304 16.57297 609 ft 6 kts 87°
2026-05-06 17:49 48.11334 16.57346 609 ft 7 kts 30°
2026-05-06 17:50 48.11385 16.57384 609 ft 9 kts 26°
2026-05-06 17:50 48.11448 16.57428 609 ft 11 kts 25°
2026-05-06 17:50 48.11522 16.57463 609 ft 12 kts 360°
2026-05-06 17:50 48.11608 16.57430 617 ft 13 kts 344°
2026-05-06 17:51 48.11699 16.57392 614 ft 14 kts 344°
2026-05-06 17:51 48.11761 16.57366 616 ft 15 kts 344°
2026-05-06 17:51 48.11864 16.57322 622 ft 16 kts 344°
2026-05-06 17:51 48.11973 16.57300 615 ft 16 kts 37°
2026-05-06 17:52 48.12011 16.57451 616 ft 16 kts 81°
2026-05-06 17:52 48.11994 16.57599 609 ft 5 kts 104°
2026-05-06 17:52 48.11994 16.57600 609 ft 0 kts 104°
2026-05-06 17:53 48.11994 16.57602 609 ft 1 kts 104°
2026-05-06 17:53 48.11988 16.57632 618 ft 5 kts 104°
2026-05-06 17:53 48.11976 16.57703 620 ft 8 kts 105°
2026-05-06 17:53 48.11953 16.57789 616 ft 10 kts 123°
2026-05-06 17:54 48.11895 16.57851 613 ft 11 kts 163°
2026-05-06 17:54 48.11699 16.57933 618 ft 58 kts 164°
2026-05-06 17:54 48.11134 16.58174 616 ft 109 kts 164°
2026-05-06 17:54 48.10265 16.58544 628 ft 147 kts 165°
2026-05-06 17:55 48.09300 16.58958 1131 ft 143 kts 166°
2026-05-06 17:55 48.08305 16.59376 1492 ft 156 kts 166°
2026-05-06 17:55 48.07205 16.59835 1831 ft 172 kts 168°
2026-05-06 17:55 48.06046 16.60536 2173 ft 191 kts 151°
2026-05-06 17:56 48.05081 16.61987 2810 ft 202 kts 129°
2026-05-06 17:56 48.04562 16.64005 3486 ft 218 kts 104°
2026-05-06 17:56 48.04697 16.66333 4074 ft 235 kts 74°
2026-05-06 17:56 48.05608 16.68415 4646 ft 247 kts 42°
2026-05-06 17:57 48.06976 16.70088 5093 ft 262 kts 38°
2026-05-06 17:57 48.08487 16.71774 5540 ft 280 kts 36°
2026-05-06 17:57 48.10112 16.73533 6025 ft 296 kts 36°
2026-05-06 17:57 48.11809 16.75370 6662 ft 304 kts 36°
2026-05-06 17:58 48.13565 16.77166 7401 ft 307 kts 27°
2026-05-06 17:58 48.15559 16.78295 8181 ft 307 kts
2026-05-06 17:58 48.17680 16.78565 8951 ft 306 kts 352°
2026-05-06 17:58 48.19786 16.78096 9687 ft 307 kts 346°
2026-05-06 17:59 48.21904 16.77535 10359 ft 311 kts 347°
2026-05-06 17:59 48.24081 16.76958 10754 ft 326 kts 347°
2026-05-06 17:59 48.26366 16.76339 11070 ft 342 kts 345°
2026-05-06 17:59 48.28601 16.75044 11375 ft 350 kts 324°
2026-05-06 18:00 48.30406 16.72589 11798 ft 351 kts 302°
2026-05-06 18:00 48.31674 16.69463 12368 ft 353 kts 296°
2026-05-06 18:00 48.32902 16.66227 12961 ft 358 kts 295°
2026-05-06 18:00 48.34139 16.62958 13576 ft 362 kts 295°
2026-05-06 18:01 48.35388 16.59651 14145 ft 365 kts 295°
2026-05-06 18:01 48.36627 16.56368 14731 ft 367 kts 295°
2026-05-06 18:01 48.37902 16.52981 15328 ft 368 kts 295°
2026-05-06 18:01 48.39167 16.49622 15926 ft 370 kts 295°
2026-05-06 18:02 48.40438 16.46245 16519 ft 371 kts 295°
2026-05-06 18:02 48.41694 16.42902 17118 ft 373 kts 295°
2026-05-06 18:02 48.42974 16.39497 17721 ft 375 kts 295°
2026-05-06 18:02 48.44260 16.36069 18292 ft 377 kts 295°
2026-05-06 18:03 48.45552 16.32617 18820 ft 380 kts 295°
2026-05-06 18:03 48.46848 16.29139 19352 ft 382 kts 294°
2026-05-06 18:03 48.48152 16.25637 19890 ft 385 kts 294°
2026-05-06 18:03 48.49484 16.22061 20443 ft 387 kts 294°
2026-05-06 18:04 48.50807 16.18512 20937 ft 390 kts 294°
2026-05-06 18:04 48.52138 16.14936 21446 ft 392 kts 294°
2026-05-06 18:04 48.53459 16.11386 21928 ft 394 kts 294°
2026-05-06 18:04 48.54804 16.07769 22400 ft 397 kts 294°
2026-05-06 18:05 48.56156 16.04128 22868 ft 399 kts 294°
2026-05-06 18:05 48.57517 16.00455 23334 ft 401 kts 294°
2026-05-06 18:05 48.58882 15.96765 23719 ft 403 kts 294°
2026-05-06 18:05 48.60248 15.93070 24107 ft 405 kts 294°
2026-05-06 18:06 48.61624 15.89337 24479 ft 407 kts 294°
2026-05-06 18:06 48.63001 15.85591 24847 ft 409 kts 294°
2026-05-06 18:06 48.64383 15.81824 25206 ft 410 kts 293°
2026-05-06 18:06 48.65786 15.77996 25554 ft 412 kts 293°
2026-05-06 18:07 48.67161 15.74243 25903 ft 414 kts 293°
2026-05-06 18:07 48.68559 15.70421 26263 ft 416 kts 293°
2026-05-06 18:07 48.69956 15.66590 26622 ft 417 kts 293°
2026-05-06 18:07 48.71366 15.62723 26958 ft 419 kts 293°
2026-05-06 18:08 48.72779 15.58853 27300 ft 421 kts 293°
2026-05-06 18:08 48.74200 15.54961 27659 ft 422 kts 292°
2026-05-06 18:08 48.75617 15.51059 28011 ft 424 kts 292°
2026-05-06 18:08 48.77036 15.47130 28370 ft 425 kts 292°
2026-05-06 18:09 48.78447 15.43220 28859 ft 422 kts 292°
2026-05-06 18:09 48.79856 15.39327 29393 ft 420 kts 292°
2026-05-06 18:09 48.81259 15.35449 29681 ft 418 kts 292°
2026-05-06 18:09 48.82654 15.31588 29715 ft 417 kts 292°
2026-05-06 18:10 48.85426 15.23872 29711 ft 416 kts 291°
2026-05-06 18:10 48.88183 15.16165 29853 ft 415 kts 291°
2026-05-06 18:11 48.89563 15.12307 30222 ft 415 kts 291°
2026-05-06 18:11 48.90986 15.08483 30594 ft 417 kts 293°
2026-05-06 18:11 48.92498 15.04718 30967 ft 418 kts 295°
2026-05-06 18:11 48.94071 15.00982 31368 ft 418 kts 295°
2026-05-06 18:12 48.95656 14.97282 31774 ft 417 kts 295°
2026-05-06 18:12 48.97208 14.93637 32165 ft 416 kts 295°
2026-05-06 18:12 48.98772 14.89874 32570 ft 414 kts 293°
2026-05-06 18:12 49.00214 14.86153 32956 ft 411 kts 291°
2026-05-06 18:13 49.01597 14.82363 33342 ft 409 kts 290°
2026-05-06 18:13 49.02945 14.78539 33722 ft 408 kts 289°
2026-05-06 18:13 49.04279 14.74727 34027 ft 408 kts 290°
2026-05-06 18:13 49.05623 14.70910 34297 ft 409 kts 290°
2026-05-06 18:14 49.06982 14.67097 34549 ft 410 kts 290°
2026-05-06 18:14 49.08351 14.63293 34787 ft 410 kts 291°
2026-05-06 18:14 49.09730 14.59488 35033 ft 411 kts 291°
2026-05-06 18:14 49.11116 14.55670 35272 ft 411 kts 291°
2026-05-06 18:15 49.12498 14.51846 35503 ft 412 kts 291°
2026-05-06 18:15 49.13878 14.48003 35672 ft 413 kts 291°
2026-05-06 18:15 49.16665 14.40196 35710 ft 424 kts 291°
2026-05-06 18:16 49.19509 14.32230 35714 ft 431 kts 291°
2026-05-06 18:16 49.22411 14.24081 35716 ft 441 kts 292°
2026-05-06 18:17 49.25367 14.15757 35726 ft 447 kts 292°
2026-05-06 18:17 49.28341 14.07369 35727 ft 448 kts 292°
2026-05-06 18:18 49.31308 13.98970 35733 ft 449 kts 292°
2026-05-06 18:18 49.34276 13.90550 35735 ft 449 kts 292°
2026-05-06 18:19 49.37238 13.82113 35746 ft 449 kts 292°
2026-05-06 18:19 49.40192 13.73638 35752 ft 450 kts 292°
2026-05-06 18:20 49.43134 13.65160 35761 ft 450 kts 292°
2026-05-06 18:20 49.46082 13.56673 35763 ft 450 kts 292°
2026-05-06 18:21 49.49009 13.48227 35767 ft 450 kts 292°
2026-05-06 18:21 49.51964 13.39662 35770 ft 450 kts 292°
2026-05-06 18:22 49.54897 13.31136 35769 ft 450 kts 292°
2026-05-06 18:22 49.57823 13.22608 35778 ft 450 kts 292°
2026-05-06 18:23 49.60713 13.14112 35771 ft 451 kts 292°
2026-05-06 18:23 49.63627 13.05541 35776 ft 451 kts 292°
2026-05-06 18:24 49.66534 12.96983 35770 ft 451 kts 292°
2026-05-06 18:24 49.69437 12.88388 35758 ft 451 kts 291°
2026-05-06 18:25 49.72330 12.79799 35761 ft 451 kts 291°
2026-05-06 18:25 49.75225 12.71179 35763 ft 451 kts 291°
2026-05-06 18:26 49.78110 12.62552 35765 ft 451 kts 291°
2026-05-06 18:26 49.80973 12.53959 35767 ft 452 kts 291°
2026-05-06 18:27 49.83846 12.45309 35766 ft 452 kts 291°
2026-05-06 18:27 49.86722 12.36631 35773 ft 453 kts 291°
2026-05-06 18:28 49.89596 12.27923 35782 ft 453 kts 291°
2026-05-06 18:28 49.92451 12.19215 35779 ft 453 kts 291°
2026-05-06 18:29 49.95305 12.10487 35776 ft 453 kts 291°
2026-05-06 18:29 49.98167 12.01751 35780 ft 453 kts 291°
2026-05-06 18:30 50.01009 11.93014 35786 ft 453 kts 291°
2026-05-06 18:30 50.03851 11.84247 35791 ft 453 kts 291°
2026-05-06 18:31 50.06688 11.75481 35794 ft 453 kts 291°
2026-05-06 18:31 50.09512 11.66711 35796 ft 453 kts 291°
2026-05-06 18:32 50.12329 11.57921 35796 ft 453 kts 291°
2026-05-06 18:32 50.15138 11.49117 35798 ft 453 kts 291°
2026-05-06 18:33 50.17946 11.40309 35799 ft 454 kts 291°
2026-05-06 18:33 50.20753 11.31474 35801 ft 454 kts 291°
2026-05-06 18:34 50.23547 11.22628 35799 ft 454 kts 291°
2026-05-06 18:34 50.26346 11.13764 35797 ft 455 kts 291°
2026-05-06 18:35 50.28663 11.06390 35797 ft 455 kts 291°
2026-05-06 18:35 50.31443 10.97494 35800 ft 456 kts 291°
2026-05-06 18:36 50.34231 10.88572 35796 ft 456 kts 291°
2026-05-06 18:36 50.37011 10.79639 35799 ft 456 kts 291°
2026-05-06 18:37 50.39782 10.70693 35802 ft 456 kts 290°
2026-05-06 18:37 50.42543 10.61731 35802 ft 457 kts 291°
2026-05-06 18:38 50.45298 10.52747 35798 ft 457 kts 290°
2026-05-06 18:38 50.47708 10.43590 35795 ft 452 kts 283°
2026-05-06 18:39 50.49596 10.34185 35790 ft 452 kts 283°
2026-05-06 18:40 50.52418 10.20032 35790 ft 453 kts 283°
2026-05-06 18:40 50.54296 10.10562 35790 ft 453 kts 283°
2026-05-06 18:41 50.56159 10.01154 35792 ft 454 kts 283°
2026-05-06 18:41 50.58029 9.91666 35792 ft 455 kts 283°
2026-05-06 18:42 50.59896 9.82144 35801 ft 455 kts 283°
2026-05-06 18:42 50.61748 9.72614 35800 ft 455 kts 283°
2026-05-06 18:43 50.63592 9.63079 35805 ft 455 kts 283°
2026-05-06 18:43 50.65432 9.53538 35810 ft 455 kts 283°
2026-05-06 18:44 50.67275 9.43973 35810 ft 455 kts 283°
2026-05-06 18:44 50.69102 9.34401 35817 ft 455 kts 283°
2026-05-06 18:45 50.70913 9.24834 35822 ft 455 kts 283°
2026-05-06 18:45 50.72686 9.15330 35831 ft 454 kts 282°
2026-05-06 18:46 50.74403 9.05733 35823 ft 455 kts 283°
2026-05-06 18:46 50.76405 8.96239 35825 ft 456 kts 286°
2026-05-06 18:47 50.78574 8.86739 35832 ft 456 kts 286°
2026-05-06 18:47 50.80661 8.77348 35830 ft 456 kts 285°
2026-05-06 18:48 50.82693 8.67852 35836 ft 456 kts 285°
2026-05-06 18:48 50.84695 8.58332 35835 ft 456 kts 285°
2026-05-06 18:49 50.86708 8.48813 35837 ft 456 kts 285°
2026-05-06 18:49 50.88724 8.39285 35842 ft 456 kts 285°
2026-05-06 18:50 50.90734 8.29731 35845 ft 457 kts 285°
2026-05-06 18:50 50.92733 8.20180 35850 ft 457 kts 285°
2026-05-06 18:51 50.94726 8.10615 35850 ft 457 kts 285°
2026-05-06 18:51 50.96714 8.01043 35856 ft 457 kts 285°
2026-05-06 18:52 50.98683 7.91505 35860 ft 457 kts 285°
2026-05-06 18:52 51.00651 7.81921 35875 ft 457 kts 285°
2026-05-06 18:53 51.02615 7.72316 35869 ft 457 kts 285°
2026-05-06 18:53 51.04566 7.62703 35877 ft 457 kts 285°
2026-05-06 18:54 51.06506 7.53080 35883 ft 457 kts 285°
2026-05-06 18:54 51.08443 7.43455 35885 ft 457 kts 285°
2026-05-06 18:55 51.10379 7.33809 35899 ft 457 kts 285°
2026-05-06 18:55 51.12292 7.24175 35893 ft 457 kts 285°
2026-05-06 18:56 51.14211 7.14511 35889 ft 458 kts 285°
2026-05-06 18:56 51.16124 7.04846 35909 ft 458 kts 285°
2026-05-06 18:57 51.18011 6.95227 35923 ft 458 kts 285°
2026-05-06 18:57 51.19897 6.85538 35926 ft 458 kts 285°
2026-05-06 18:58 51.21787 6.75844 35930 ft 458 kts 285°
2026-05-06 18:58 51.23667 6.66147 35928 ft 458 kts 285°
2026-05-06 18:59 51.25550 6.56370 35904 ft 457 kts 285°
2026-05-06 18:59 51.27392 6.46727 35903 ft 457 kts 285°
2026-05-06 19:00 51.29243 6.37009 35902 ft 457 kts 285°
2026-05-06 19:00 51.31087 6.27286 35909 ft 457 kts 285°
2026-05-06 19:01 51.32917 6.17559 35929 ft 457 kts 285°
2026-05-06 19:01 51.34744 6.07809 35930 ft 457 kts 285°
2026-05-06 19:02 51.36563 5.98067 35933 ft 457 kts 285°
2026-05-06 19:02 51.38375 5.88317 35933 ft 457 kts 285°
2026-05-06 19:03 51.40173 5.78566 35937 ft 457 kts 285°
2026-05-06 19:03 51.41968 5.68803 35935 ft 457 kts 284°
2026-05-06 19:04 51.43750 5.59044 35932 ft 456 kts 284°
2026-05-06 19:04 51.45528 5.49274 35924 ft 456 kts 284°
2026-05-06 19:05 51.47294 5.39496 35926 ft 456 kts 284°
2026-05-06 19:05 51.49047 5.29729 35935 ft 456 kts 284°
2026-05-06 19:06 51.50785 5.19941 35934 ft 456 kts 284°
2026-05-06 19:06 51.52522 5.10152 35958 ft 456 kts 284°
2026-05-06 19:07 51.54259 5.00367 35954 ft 456 kts 284°
2026-05-06 19:07 51.55980 4.90583 35951 ft 455 kts 284°
2026-05-06 19:08 51.57693 4.80785 35953 ft 455 kts 284°
2026-05-06 19:08 51.59401 4.70982 35953 ft 455 kts 284°
2026-05-06 19:09 51.61098 4.61172 35952 ft 455 kts 284°
2026-05-06 19:09 51.62787 4.51375 35954 ft 455 kts 284°
2026-05-06 19:10 51.64467 4.41549 35953 ft 455 kts 284°
2026-05-06 19:10 51.66128 4.31743 35961 ft 454 kts 284°
2026-05-06 19:11 51.67786 4.21924 35961 ft 454 kts 284°
2026-05-06 19:11 51.69436 4.12103 35958 ft 454 kts 284°
2026-05-06 19:12 51.71077 4.02295 35963 ft 453 kts 284°
2026-05-06 19:12 51.72701 3.92570 35963 ft 452 kts 284°
2026-05-06 19:13 51.74327 3.82797 35962 ft 451 kts 284°
2026-05-06 19:13 51.75940 3.72966 35965 ft 450 kts 284°
2026-05-06 19:14 51.77522 3.63215 35963 ft 449 kts 284°
2026-05-06 19:14 51.79102 3.53462 35963 ft 449 kts 284°
2026-05-06 19:15 51.80683 3.43711 35966 ft 448 kts 284°
2026-05-06 19:15 51.82236 3.34032 35964 ft 448 kts 283°
2026-05-06 19:16 51.83787 3.24271 35961 ft 447 kts 283°
2026-05-06 19:16 51.84681 3.14400 35959 ft 446 kts 268°
2026-05-06 19:17 51.84084 3.04391 35971 ft 447 kts 264°
2026-05-06 19:17 51.83430 2.94389 35974 ft 448 kts 264°
2026-05-06 19:18 51.82778 2.84399 35975 ft 447 kts 264°
2026-05-06 19:18 51.82109 2.74394 35977 ft 447 kts 263°
2026-05-06 19:19 51.81537 2.66083 35979 ft 447 kts 263°
2026-05-06 19:19 51.81191 2.61089 35870 ft 447 kts 263°
2026-05-06 19:19 51.80847 2.56108 35287 ft 446 kts 263°
2026-05-06 19:19 51.80503 2.51133 34529 ft 445 kts 264°
2026-05-06 19:20 51.80157 2.46160 33708 ft 445 kts 264°
2026-05-06 19:20 51.79810 2.41188 32778 ft 446 kts 264°
2026-05-06 19:20 51.79458 2.36196 32104 ft 450 kts 263°
2026-05-06 19:20 51.79102 2.31183 31578 ft 449 kts 263°
2026-05-06 19:21 51.78738 2.26162 31060 ft 451 kts 263°
2026-05-06 19:21 51.78373 2.21125 30486 ft 452 kts 264°
2026-05-06 19:21 51.78038 2.16061 29893 ft 454 kts 264°
2026-05-06 19:21 51.77737 2.10982 29232 ft 455 kts 265°
2026-05-06 19:22 51.77456 2.05885 28586 ft 457 kts 265°
2026-05-06 19:22 51.77174 2.00768 27952 ft 458 kts 265°
2026-05-06 19:22 51.76882 1.95638 27331 ft 460 kts 265°
2026-05-06 19:22 51.76582 1.90492 26700 ft 461 kts 264°
2026-05-06 19:23 51.76274 1.85341 26090 ft 463 kts 264°
2026-05-06 19:23 51.75959 1.80204 25478 ft 453 kts 264°
2026-05-06 19:23 51.75648 1.75213 24890 ft 443 kts 264°
2026-05-06 19:23 51.75337 1.70315 24315 ft 434 kts 264°
2026-05-06 19:24 51.75030 1.65507 23752 ft 427 kts 264°
2026-05-06 19:24 51.74733 1.60793 23164 ft 419 kts 264°
2026-05-06 19:24 51.74443 1.56239 22634 ft 397 kts 264°
2026-05-06 19:24 51.74161 1.51830 22132 ft 397 kts 264°
2026-05-06 19:25 51.73878 1.47417 21624 ft 393 kts 264°
2026-05-06 19:25 51.73599 1.43048 21143 ft 390 kts 264°
2026-05-06 19:25 51.73320 1.38702 20679 ft 388 kts 264°
2026-05-06 19:25 51.73038 1.34393 20221 ft 385 kts 264°
2026-05-06 19:26 51.72756 1.30112 19771 ft 383 kts 264°
2026-05-06 19:26 51.72474 1.25864 19339 ft 381 kts 264°
2026-05-06 19:26 51.72191 1.21632 18893 ft 378 kts 264°
2026-05-06 19:26 51.71910 1.17424 18458 ft 376 kts 264°
2026-05-06 19:27 51.71631 1.13241 18000 ft 374 kts 264°
2026-05-06 19:27 51.71352 1.09081 17515 ft 372 kts 264°
2026-05-06 19:27 51.71069 1.04941 17034 ft 370 kts 264°
2026-05-06 19:27 51.70785 1.00831 16558 ft 368 kts 264°
2026-05-06 19:28 51.70503 0.96742 16095 ft 366 kts 264°
2026-05-06 19:28 51.70222 0.92673 15634 ft 364 kts 264°
2026-05-06 19:28 51.69942 0.88639 15184 ft 362 kts 264°
2026-05-06 19:28 51.69662 0.84610 14739 ft 360 kts 264°
2026-05-06 19:29 51.69382 0.80607 14312 ft 359 kts 264°
2026-05-06 19:29 51.69100 0.76625 13899 ft 357 kts 264°
2026-05-06 19:29 51.68817 0.72665 13439 ft 353 kts 264°
2026-05-06 19:29 51.68538 0.68768 13031 ft 346 kts 264°
2026-05-06 19:30 51.68265 0.64957 12636 ft 340 kts 264°
2026-05-06 19:30 51.67998 0.61211 12241 ft 333 kts 264°
2026-05-06 19:30 51.67737 0.57596 11858 ft 317 kts 264°
2026-05-06 19:30 51.67489 0.54157 11475 ft 302 kts 264°
2026-05-06 19:31 51.67251 0.50868 11126 ft 290 kts 264°
2026-05-06 19:31 51.67016 0.47643 10784 ft 289 kts 264°
2026-05-06 19:31 51.66548 0.41237 10089 ft 287 kts 264°
2026-05-06 19:32 51.66313 0.38051 9732 ft 286 kts 264°
2026-05-06 19:32 51.66079 0.34885 9359 ft 285 kts 264°
2026-05-06 19:32 51.65846 0.31761 8972 ft 276 kts 264°
2026-05-06 19:32 51.65622 0.28750 8609 ft 265 kts 264°
2026-05-06 19:33 51.65406 0.25859 8241 ft 255 kts 264°
2026-05-06 19:33 51.65204 0.23054 7902 ft 252 kts 264°
2026-05-06 19:33 51.65010 0.20239 7539 ft 253 kts 264°
2026-05-06 19:33 51.64826 0.17460 7183 ft 246 kts 264°
2026-05-06 19:34 51.64655 0.14747 7016 ft 241 kts 264°
2026-05-06 19:34 51.64492 0.12044 7025 ft 243 kts 264°
2026-05-06 19:34 51.64329 0.09330 7023 ft 243 kts 264°
2026-05-06 19:34 51.64171 0.06655 7030 ft 243 kts 264°
2026-05-06 19:35 51.64013 0.03910 7028 ft 243 kts 264°
2026-05-06 19:35 51.63860 0.01232 7029 ft 244 kts 264°
2026-05-06 19:35 51.63706 -0.01483 7025 ft 244 kts 264°
2026-05-06 19:35 51.63551 -0.04231 7029 ft 244 kts 265°
2026-05-06 19:36 51.63431 -0.06956 7050 ft 243 kts 266°
2026-05-06 19:36 51.63325 -0.09674 7048 ft 243 kts 266°
2026-05-06 19:36 51.63220 -0.12357 7056 ft 243 kts 266°
2026-05-06 19:36 51.63111 -0.15066 7055 ft 243 kts 266°
2026-05-06 19:37 51.62999 -0.17775 7053 ft 242 kts 266°
2026-05-06 19:37 51.62883 -0.20480 7056 ft 242 kts 266°
2026-05-06 19:37 51.62763 -0.23189 7060 ft 242 kts 266°
2026-05-06 19:37 51.62642 -0.25885 7058 ft 242 kts 266°
2026-05-06 19:38 51.62517 -0.28584 7059 ft 241 kts 266°
2026-05-06 19:38 51.62307 -0.31269 7056 ft 241 kts 262°
2026-05-06 19:38 51.62038 -0.33930 7033 ft 241 kts 261°
2026-05-06 19:38 51.61759 -0.36591 7025 ft 241 kts 261°
2026-05-06 19:39 51.61475 -0.39252 6913 ft 241 kts 261°
2026-05-06 19:39 51.61190 -0.41905 6725 ft 240 kts 261°
2026-05-06 19:39 51.60904 -0.44542 6528 ft 239 kts 261°
2026-05-06 19:39 51.60615 -0.47167 6327 ft 238 kts 261°
2026-05-06 19:40 51.60324 -0.49785 6116 ft 238 kts 261°
2026-05-06 19:40 51.60032 -0.52393 5890 ft 237 kts 261°
2026-05-06 19:40 51.59739 -0.54997 5690 ft 236 kts 261°
2026-05-06 19:40 51.59447 -0.57593 5487 ft 236 kts 261°
2026-05-06 19:41 51.59157 -0.60183 5280 ft 235 kts 261°
2026-05-06 19:41 51.58866 -0.62768 5083 ft 235 kts 261°
2026-05-06 19:41 51.58576 -0.65349 4979 ft 235 kts 261°
2026-05-06 19:41 51.58286 -0.67925 4798 ft 234 kts 261°
2026-05-06 19:42 51.57995 -0.70490 4614 ft 233 kts 261°
2026-05-06 19:42 51.57699 -0.73049 4450 ft 233 kts 261°
2026-05-06 19:42 51.57330 -0.75579 4315 ft 234 kts 249°
2026-05-06 19:42 51.56487 -0.77801 4186 ft 233 kts 224°
2026-05-06 19:43 51.55128 -0.79096 4071 ft 224 kts 196°
2026-05-06 19:43 51.53614 -0.79433 3989 ft 218 kts 182°
2026-05-06 19:43 51.52097 -0.79517 4000 ft 218 kts 180°
2026-05-06 19:43 51.50592 -0.79170 3847 ft 220 kts 160°
2026-05-06 19:44 51.49265 -0.78028 3675 ft 217 kts 139°
2026-05-06 19:44 51.48277 -0.76264 3509 ft 210 kts 118°
2026-05-06 19:44 51.47732 -0.74162 3294 ft 200 kts 99°
2026-05-06 19:44 51.47627 -0.72007 3040 ft 188 kts 86°
2026-05-06 19:45 51.47640 -0.69948 2796 ft 183 kts 86°
2026-05-06 19:45 51.47652 -0.67908 2551 ft 179 kts 86°
2026-05-06 19:45 51.47663 -0.65972 2311 ft 172 kts 86°
2026-05-06 19:45 51.47674 -0.64049 2081 ft 173 kts 86°
2026-05-06 19:46 51.47684 -0.62123 1850 ft 171 kts 86°
2026-05-06 19:46 51.47694 -0.60242 1599 ft 167 kts 86°
2026-05-06 19:46 51.47700 -0.58666 1420 ft 148 kts 86°
2026-05-06 19:46 51.47708 -0.57085 1217 ft 140 kts 85°
2026-05-06 19:47 51.47716 -0.55500 1015 ft 140 kts 86°
2026-05-06 19:47 51.47727 -0.53962 815 ft 140 kts 86°
2026-05-06 19:47 51.47732 -0.52399 632 ft 140 kts 86°
2026-05-06 19:47 51.47743 -0.50839 397 ft 140 kts 88°
2026-05-06 19:48 51.47744 -0.49285 232 ft 140 kts 86°
2026-05-06 19:48 51.47748 -0.47743 95 ft 133 kts 87°
2026-05-06 19:48 51.47758 -0.46511 92 ft 75 kts 89°
2026-05-06 19:48 51.47759 -0.45851 88 ft 53 kts 90°
2026-05-06 19:49 51.47727 -0.45484 87 ft 24 kts 162°
2026-05-06 19:49 51.47606 -0.45470 87 ft 13 kts 178°
2026-05-06 19:49 51.47514 -0.45502 89 ft 14 kts 232°
2026-05-06 19:49 51.47508 -0.45668 91 ft 16 kts 270°
2026-05-06 19:50 51.47518 -0.45859 87 ft 18 kts 272°
2026-05-06 19:50 51.47516 -0.46061 87 ft 19 kts 269°
2026-05-06 19:50 51.47517 -0.46291 87 ft 22 kts 270°
2026-05-06 19:50 51.47516 -0.46549 87 ft 24 kts 269°
2026-05-06 19:51 51.47499 -0.46767 88 ft 13 kts 252°
2026-05-06 19:51 51.47493 -0.46922 87 ft 15 kts 268°
2026-05-06 19:51 51.47490 -0.47101 87 ft 17 kts 269°
2026-05-06 19:51 51.47491 -0.47307 87 ft 20 kts 271°
2026-05-06 19:52 51.47492 -0.47541 87 ft 22 kts 267°
2026-05-06 19:52 51.47490 -0.47800 87 ft 25 kts 270°
2026-05-06 19:52 51.47488 -0.48042 88 ft 23 kts 269°
2026-05-06 19:52 51.47488 -0.48313 89 ft 24 kts 269°
2026-05-06 19:53 51.47458 -0.48474 87 ft 15 kts 198°
2026-05-06 19:53 51.47347 -0.48477 87 ft 17 kts 180°
2026-05-06 19:53 51.47219 -0.48475 87 ft 20 kts 179°
2026-05-06 19:53 51.47077 -0.48473 87 ft 18 kts 180°
2026-05-06 19:54 51.46945 -0.48472 88 ft 20 kts 179°
2026-05-06 19:54 51.46875 -0.48561 89 ft 15 kts 270°
2026-05-06 19:54 51.46876 -0.48711 89 ft 12 kts 269°
2026-05-06 19:54 51.46904 -0.48790 87 ft 7 kts 355°
2026-05-06 19:55 51.46928 -0.48789 87 ft 2 kts 360°
2026-05-06 19:55 51.46931 -0.48789 87 ft 0 kts 360°